Location: Stanford
(52.2833°N, 2.4333°W)
Time: 02:25:16
(UTC+00:00)

ATLAS 5 CENTAUR R/B - Pass Details

Date: 22 January 2021
Orbit: 511 x 1147 km, 63.3° (Epoch: 16 February)

Event Time Altitude Azimuth Distance (km) Brightness Sun altitude
Rises 19:46:11 0° 278° (W) 2,804 6.2 -28.2°
Reaches altitude 10° 19:48:37 10° 292° (WNW) 1,983 5.0 -28.5°
Enters shadow 19:52:09 25° 344° (NNW) 1,356 3.4 -29.1°
